EHI
47 43 36 31 26 21 18 15 13 12 11 10 10 10 7 4 3 1 1 2 3 1 0 0 0 0 0 0 0 0 0 0 0 0 0 0 0 0 0 0 0 0 0
43 41 37 31 27 23 18 15 12 12 11 9 9 10 8 5 3 2 2 3 3 2 1 1 0 0 0 0 0 0 0 0 0 0 0 0 0 0 0 0 0 0 0
39 38 36 31 27 23 19 15 12 11 9 7 8 9 8 5 3 3 3 3 4 3 3 2 1 1 1 1 1 0 0 0 0 0 0 0 0 0 0 0 0 0 0
36 34 30 27 23 20 17 15 12 8 7 7 7 9 8 5 3 4 4 4 4 4 3 3 2 2 2 2 2 1 0 0 0 0 0 0 0 0 0 0 0 0 0
30 27 23 20 17 14 13 13 12 9 7 7 8 9 8 5 4 5 5 6 5 4 3 3 3 3 3 3 2 1 0 0 0 0 0 0 0 0 0 0 0 0 0
23 20 17 15 13 11 10 10 11 10 9 9 10 9 7 6 4 4 5 6 6 4 3 4 4 4 3 2 1 0 0 0 0 0 0 0 0 0 0 0 0 0 0
17 16 14 13 12 11 9 9 10 11 12 12 11 10 8 6 5 4 4 5 5 4 4 5 5 4 3 2 0 0 0 0 0 0 0 0 0 0 0 0 0 0 0
14 14 14 14 13 12 10 9 10 11 12 12 12 12 9 6 4 3 2 4 5 4 3 4 4 3 2 1 0 0 0 0 0 0 0 0 0 0 0 0 0 0 0
11 12 14 15 15 14 13 13 14 13 12 10 11 12 8 5 4 2 1 3 4 3 3 2 2 2 1 0 0 0 0 0 0 0 0 0 0 0 0 0 0 0 0
9 9 10 13 14 14 15 17 16 14 10 9 9 8 6 5 3 1 1 2 3 2 1 1 1 1 0 0 0 0 0 0 0 0 0 0 0 0 0 0 0 0 0
7 5 6 9 12 12 13 14 14 11 8 7 6 4 4 4 3 1 1 2 2 1 0 0 0 0 0 0 0 0 0 0 0 0 0 0 0 0 0 0 0 0 0
4 4 4 6 8 8 8 9 9 8 7 6 4 3 3 3 2 1 0 1 1 0 0 0 0 0 0 0 0 0 0 0 0 0 0 0 0 0 0 0 0 0 0
4 3 3 4 5 5 5 6 6 6 7 6 4 3 2 1 1 0 0 0 0 0 0 0 0 0 0 0 0 0 0 0 0 0 0 0 0 0 0 0 0 0 0
5 4 4 3 3 2 3 3 3 3 5 5 3 1 1 0 0 0 0 0 0 0 0 0 0 0 0 0 0 0 0 0 0 0 0 0 0 0 0 0 0 0 0
6 5 4 3 1 1 1 1 1 1 1 1 1 0 0 0 0 0 0 0 0 0 0 0 0 0 0 0 0 0 0 0 0 0 0 0 0 0 0 0 0 0 0
4 4 4 3 1 0 0 0 0 0 0 0 0 0 0 0 0 0 0 0 0 0 0 0 0 0 0 0 0 0 0 0 0 0 0 0 0 0 0 0 0 0 0
2 2 2 2 2 1 0 0 0 0 0 0 0 0 0 0 0 0 0 0 0 0 0 0 0 0 0 0 0 0 0 0 0 0 0 0 0 0 0 0 0 0 0
2 1 1 1 2 1 0 0 0 0 0 0 0 0 0 0 0 0 0 0 0 0 0 0 0 0 0 0 0 0 0 0 0 0 0 0 0 0 0 0 0 0 0
2 1 0 0 1 1 0 0 0 0 0 0 0 0 0 0 0 0 0 0 0 0 0 0 0 0 0 0 0 0 0 0 0 0 0 0 0 0 0 0 0 0 0
1 0 0 0 0 0 0 0 0 0 0 0 0 0 0 0 0 0 0 0 0 0 0 0 0 0 0 0 0 0 0 0 0 0 0 0 0 0 0 0 0 0 0
0 0 0 0 0 0 0 0 0 0 0 0 0 0 0 0 0 0 0 0 0 0 0 0 0 0 0 0 0 0 0 0 0 0 0 0 0 0 0 0 0 0 0
0 0 0 0 0 0 0 0 0 0 0 0 0 0 0 0 0 0 0 0 0 0 0 0 0 0 0 0 0 0 0 0 0 0 0 0 0 0 0 0 0 0 0
0 0 0 0 0 0 0 0 0 0 0 0 0 0 0 0 0 0 0 0 0 0 0 0 0 0 0 0 0 0 0 0 0 0 0 0 0 0 0 0 0 0 0
0 0 0 0 0 0 0 0 0 0 0 0 0 0 0 0 0 0 0 0 0 0 0 0 0 0 0 0 0 0 0 0 0 0 0 0 0 0 0 0 0 0 0
0 0 0 0 0 0 0 0 0 0 0 0 0 0 0 0 0 0 0 0 0 0 0 0 0 0 0 0 0 0 0 0 0 0 0 0 0 0 0 0 0 0 0
0 0 0 0 0 0 0 0 0 0 0 0 0 0 0 0 0 0 0 0 0 0 0 0 0 0 0 0 0 0 0 0 0 0 0 0 0 0 0 0 0 0 0
Wind_Speed
10 9 9 8 8 7 7 7 7 6 7 7 7 7 7 6 6 5 5 4 5 4 3 3 4 3 2 1 1 1 2 3 3 3 2 1 2 3 3 3 4 4 5
9 8 8 8 8 8 8 7 7 7 7 7 7 7 7 7 6 6 6 5 5 4 4 3 4 3 3 2 1 1 2 3 3 2 1 1 2 3 3 3 4 5 4
8 8 8 8 8 8 8 7 7 7 6 6 7 7 7 7 7 6 6 5 5 5 4 4 4 4 3 2 2 2 1 1 2 2 2 1 1 0 1 2 3 2 4
8 8 8 7 7 7 7 7 7 7 7 7 7 7 7 7 7 6 6 6 5 4 4 4 4 5 4 4 3 3 2 1 1 1 1 1 1 1 1 1 2 2 3
8 7 8 7 6 6 6 6 6 6 7 6 6 6 6 6 7 7 6 6 5 4 4 4 4 5 6 5 3 3 3 2 2 1 1 1 1 1 2 2 2 2 3
7 6 5 5 5 6 6 5 5 5 5 5 6 6 6 5 7 9 7 6 5 5 4 4 3 4 5 6 6 5 5 4 4 3 2 2 3 3 2 2 2 1 3
6 6 5 5 5 6 6 5 5 5 5 5 5 5 5 4 6 8 8 5 5 5 5 4 3 3 3 3 4 4 4 5 6 5 4 5 4 4 3 2 3 3 4
5 5 5 5 5 5 5 5 5 4 4 4 4 4 4 4 6 7 8 5 4 4 4 4 3 3 3 3 3 2 3 3 4 4 5 5 4 4 4 4 4 2 2
5 5 5 5 5 5 5 5 4 3 3 3 3 4 4 3 5 7 6 3 2 3 2 2 3 3 4 4 3 3 2 3 4 5 5 4 4 3 3 1 1 1 2
4 4 4 4 4 5 5 4 3 3 3 3 2 2 3 2 3 5 6 3 3 2 1 1 2 3 3 4 3 3 3 4 2 1 1 2 2 3 3 3 3 2 2
3 4 4 4 4 4 4 3 3 3 4 3 3 2 2 2 2 3 4 3 3 2 1 1 0 2 2 2 3 2 4 2 1 1 0 1 1 1 2 2 3 3 3
4 4 4 3 3 4 4 3 4 4 4 3 3 3 2 2 3 3 3 3 2 2 1 1 1 2 2 1 1 1 1 1 1 1 1 1 1 2 2 2 3 3 4
5 4 4 4 3 4 4 4 4 4 3 3 3 3 2 2 2 4 4 4 4 3 2 2 3 3 3 2 2 2 2 2 1 1 1 2 2 2 2 2 2 2 2
5 4 4 5 4 4 3 3 3 3 3 3 3 3 2 2 2 2 2 3 4 3 2 4 5 5 4 4 4 3 2 1 1 0 1 2 2 2 2 1 1 2 2
5 5 5 5 5 5 5 4 4 3 2 4 3 3 4 3 1 3 3 3 2 3 3 3 4 3 3 3 3 3 2 2 2 2 1 2 2 2 2 2 1 1 1
5 5 4 4 4 5 6 6 10 8 8 8 7 6 5 5 6 7 6 6 6 7 6 4 3 3 3 3 3 3 3 2 2 2 2 2 2 2 3 2 2 1 2
5 5 4 4 4 4 5 6 6 7 11 10 9 9 8 8 8 7 7 8 7 7 6 4 3 3 2 2 2 2 3 3 2 2 2 2 2 2 2 3 3 2 2
6 6 5 4 3 4 4 4 5 6 6 5 7 9 10 10 9 9 8 9 7 6 4 4 3 3 3 2 2 2 2 3 3 3 3 3 3 3 3 3 3 3 3
5 4 4 4 4 4 5 5 5 6 6 5 5 6 8 9 10 9 8 6 5 4 4 3 3 3 3 3 3 3 3 3 3 3 3 3 3 3 3 3 3 5 3
5 9 8 5 5 5 5 5 5 6 6 5 5 4 3 5 6 6 5 5 5 4 4 4 4 4 4 4 4 3 3 4 4 4 3 4 3 3 3 4 4 4 3
4 6 9 7 5 5 5 5 5 6 6 5 4 5 6 6 5 6 5 5 4 4 4 4 4 4 4 4 3 4 4 3 4 4 4 4 4 4 4 4 4 4 4
5 5 5 6 6 6 6 5 6 6 7 7 5 6 8 6 6 6 5 5 4 4 3 3 3 3 3 3 3 3 3 3 4 4 4 4 4 4 4 4 5 5 4
6 7 7 7 6 8 7 6 6 6 6 6 6 5 5 6 6 5 5 5 4 4 4 4 4 4 4 4 3 3 3 3 4 4 4 4 4 4 4 4 6 6 6
7 8 8 7 7 7 7 6 6 7 6 6 6 6 5 5 5 6 5 5 5 5 4 4 5 6 6 5 4 4 4 4 4 4 4 4 4 4 4 5 5 6 5
7 8 8 7 7 7 7 7 7 6 6 6 6 6 5 5 5 5 4 5 6 5 6 5 4 5 6 6 6 5 7 8 6 5 4 3 4 5 5 5 5 6 6
8 8 7 7 7 7 7 7 7 6 6 6 5 5 5 5 5 5 4 5 5 5 5 4 5 5 5 5 6 8 8 8 8 8 5 3 4 4 5 5 6 6 6
Wind_Direction
189 191 190 188 186 183 188 196 195 191 188 188 191 191 192 191 188 184 192 188 193 204 208 203 219 212 198 203 188 182 182 168 197 258 252 239 197 207 191 208 221 225 232
188 185 190 189 186 189 195 198 194 192 194 193 190 191 195 194 191 190 198 196 194 203 212 206 221 210 205 212 197 204 202 186 179 217 259 241 219 214 205 216 227 225 228
179 177 184 187 188 195 197 194 193 194 195 195 191 192 195 193 192 194 194 197 198 202 205 207 217 201 210 212 198 201 210 189 165 174 228 244 254 245 192 246 244 250 239
174 175 183 191 193 194 194 193 195 195 195 197 195 193 194 195 195 193 191 195 197 203 205 207 209 200 202 201 202 205 194 172 150 159 208 247 254 260 148 229 271 263 259
169 178 190 191 189 188 189 192 192 192 196 196 194 196 194 192 198 193 194 193 191 198 207 210 213 207 203 203 205 198 182 172 162 164 195 201 242 226 220 216 233 266 270
167 177 181 180 182 187 190 190 187 192 195 190 190 193 196 204 198 192 189 188 187 192 201 213 221 213 213 212 210 198 184 183 186 188 200 208 230 223 217 212 214 230 279
165 173 177 180 182 190 190 182 184 188 185 185 190 189 191 199 189 185 184 178 184 191 194 203 220 217 203 205 217 219 222 220 202 188 199 215 216 215 202 217 216 212 233
157 162 167 173 183 182 174 177 179 177 177 175 172 175 179 195 186 184 179 175 176 187 193 199 204 215 210 196 202 210 232 247 227 210 209 221 221 216 202 204 212 224 262
150 160 167 169 169 165 164 171 169 162 163 166 166 172 178 196 189 178 169 163 171 189 199 197 197 211 226 203 187 207 247 273 258 227 221 232 243 242 205 161 184 194 268
158 160 157 158 156 159 160 155 147 146 148 144 149 162 169 177 172 171 164 155 169 186 195 205 211 211 224 202 193 198 228 252 255 260 258 278 270 275 242 200 194 196 221
145 135 130 138 147 149 142 136 135 134 128 128 131 115 110 108 108 133 157 163 174 176 182 197 224 198 207 203 193 200 224 226 204 183 265 320 328 314 286 239 208 195 200
118 114 116 120 131 127 127 131 130 134 136 140 121 98 75 75 83 97 115 144 146 139 142 105 71 82 87 95 109 50 8 67 82 70 24 333 313 293 279 265 241 228 223
105 105 105 101 94 106 119 128 123 127 131 133 125 116 95 70 69 90 100 103 100 101 98 96 78 72 74 65 49 43 47 64 68 51 324 299 284 282 292 303 303 274 265
110 110 110 106 97 89 90 98 112 125 132 127 123 118 105 82 69 72 87 97 94 91 79 70 67 64 61 50 37 30 36 50 78 4 309 308 327 336 324 309 301 305 304
104 105 103 104 108 95 81 67 80 70 117 128 124 124 124 111 90 114 113 103 116 118 100 71 59 52 44 36 33 30 28 33 31 2 343 335 335 333 324 325 313 302 288
108 104 103 107 110 110 106 84 60 70 73 85 98 110 100 104 107 96 93 99 105 111 95 78 68 59 50 38 36 28 24 20 10 10 7 357 348 341 334 332 342 333 296
117 117 112 113 117 119 121 120 107 69 60 60 72 85 90 95 94 89 87 90 88 94 83 79 73 66 55 47 43 34 16 2 7 16 9 356 349 347 346 346 345 334 317
106 108 111 114 120 123 122 120 119 116 98 68 53 66 79 84 83 82 85 84 69 63 71 75 68 57 46 37 33 28 18 13 16 13 6 359 354 351 346 338 330 324 317
103 105 105 105 104 105 109 109 106 105 105 101 86 63 67 76 72 70 77 78 82 74 65 58 53 51 44 38 37 37 33 26 17 11 5 357 350 346 337 328 323 327 323
96 100 101 100 98 98 101 106 108 107 106 103 98 93 84 79 75 67 65 70 75 71 64 61 53 50 46 42 39 37 34 25 15 10 359 352 347 346 336 330 326 323 316
95 99 98 99 97 96 96 101 107 107 105 99 91 83 93 92 89 83 78 72 72 73 71 67 58 50 46 42 39 36 31 17 6 359 353 345 342 339 333 329 324 319 314
93 90 90 93 93 91 92 92 94 98 100 97 90 81 80 82 81 80 77 73 69 68 67 69 60 49 47 44 39 33 21 8 357 348 340 336 335 333 329 329 328 322 316
90 89 86 84 87 90 89 87 90 93 95 96 95 88 82 81 81 79 75 68 64 62 57 60 62 50 39 33 26 24 11 346 330 324 326 328 329 326 322 319 317 318 316
83 86 88 89 88 87 90 91 90 92 94 94 91 88 84 84 82 78 74 70 66 59 54 53 56 52 45 35 24 13 359 343 332 325 327 324 325 322 320 318 316 316 313
81 85 86 87 87 87 88 89 89 88 88 89 90 90 87 83 81 78 75 73 71 67 60 53 47 43 41 34 24 9 356 354 351 342 332 332 332 329 325 320 319 318 314
83 85 85 85 86 86 87 88 87 88 88 87 87 87 85 83 81 76 72 73 73 68 63 54 47 43 34 26 16 8 1 355 351 348 342 337 338 332 332 325 322 320 319